HST 1 20580U 90037B 26119.49850698 .00006626 00000+0 21264-3 0 9999 2 20580 28.4754 53.1938 0001749 330.3355 29.7141 15.30199246781100 POLAR 1 23802U 96013A 26118.74260267 .00000005 00000+0 00000+0 0 9999 2 23802 79.8054 227.6254 6420817 210.7729 86.8948 1.29845833144212 SWAS 1 25560U 98071A 26119.77237495 .00003865 00000+0 24838-3 0 9995 2 25560 69.8978 352.3408 0007462 307.1492 52.8989 15.09285273489966 CXO 1 25867U 99040B 26121.77434247 .00000574 00000+0 00000+0 0 9994 2 25867 55.4326 117.9802 7910128 310.5568 359.9255 0.37807064 17145 XMM-NEWTON 1 25989U 99066A 26119.48249831 -.00000021 00000+0 00000+0 0 9993 2 25989 64.7331 283.6064 4688678 65.7859 0.1035 0.50130503 22768 TERRA 1 25994U 99068A 26119.89500309 .00000432 00000+0 96995-4 0 9994 2 25994 97.9497 171.3468 0003006 48.4672 124.4466 14.61063796402552 CLUSTER II-FM7 (SAMBA) 1 26410U 00041A 26119.05025564 .00002271 00000+0 00000+0 0 9994 2 26410 149.6805 42.4302 8992946 259.0060 0.6082 0.44823564 20095 CLUSTER II-FM8 (TANGO) 1 26464U 00045B 26121.13459255 .00002884 00000+0 00000+0 0 9997 2 26464 149.9674 43.7125 9000108 260.1784 0.5507 0.44400441 20080 ODIN 1 26702U 01007A 26119.68383758 .00046080 00000+0 49548-3 0 9992 2 26702 97.3959 157.9842 0001338 26.4459 333.6868 15.63621997381796 TIMED 1 26998U 01055B 26119.70081339 .00001266 00000+0 11881-3 0 9991 2 26998 74.0680 332.6399 0001601 206.3438 153.7665 14.95176584323573 CORIOLIS 1 27640U 03001A 26119.85799013 .00000131 00000+0 81971-4 0 9998 2 27640 98.7141 127.4786 0013889 357.2292 2.8805 14.19931135207363 SORCE 1 27651U 03004A 26119.85226953 .00003223 00000+0 24287-3 0 9992 2 27651 39.9896 177.3887 0016090 63.2553 296.9885 15.03446128264629 MOST 1 27843U 03031D 26119.56699749 .00000082 00000+0 57723-4 0 9992 2 27843 98.7061 127.9692 0010537 38.3551 321.8373 14.21312124183802 SCISAT 1 1 27858U 03036A 26119.73849825 .00000782 00000+0 10457-3 0 9993 2 27858 73.9292 267.5979 0007724 334.0069 26.0718 14.81392221224278 SWIFT 1 28485U 04047A 26119.45587312 .00041163 00000+0 40847-3 0 9996 2 28485 20.5523 199.4861 0002102 16.3110 343.7403 15.63897823179217 HINODE (SOLAR-B) 1 29479U 06041A 26119.81059719 .00000837 00000+0 15228-3 0 9999 2 29479 98.0575 136.6736 0018946 82.5593 277.7764 14.68551717 47779 SHIJIAN-6 02A (SJ-6 02A) 1 29505U 06046A 26119.79671735 .00004342 00000+0 22722-3 0 9991 2 29505 97.6403 160.5106 0001993 335.1806 24.9330 15.16377814 64935 SHIJIAN-6 02B (SJ-6 02B) 1 29506U 06046B 26119.82491848 .00001713 00000+0 13802-3 0 9999 2 29506 97.7144 149.1868 0010972 225.5259 134.5068 15.01228474 63484 FGRST (GLAST) 1 33053U 08029A 26119.83581365 .00003689 00000+0 13567-3 0 9991 2 33053 25.5811 180.1395 0008645 114.8826 245.2611 15.23685161988451 SDO 1 36395U 10005A 26119.44532008 -.00000055 00000+0 00000+0 0 9996 2 36395 34.5528 87.0758 0001072 28.9897 159.8676 1.00272896 59576 CRYOSAT 2 1 36508U 10013A 26119.83741821 .00000254 00000+0 62291-4 0 9994 2 36508 92.0294 265.5652 0002665 91.8289 268.3223 14.51906949851061 X-SAT 1 37389U 11015C 26119.85375696 .00000198 00000+0 10145-3 0 9997 2 37389 98.3481 99.1884 0014992 121.7232 238.5412 14.25191441780795 GCOM-W1 (SHIZUKU) 1 38337U 12025A 26119.82525860 .00000564 00000+0 13519-3 0 9995 2 38337 98.1998 61.1219 0001317 94.3122 319.8418 14.57123856741999 NUSTAR 1 38358U 12031A 26119.91668980 .00008327 00000+0 46672-3 0 9997 2 38358 6.0265 36.0748 0007176 113.3888 269.6781 15.08333813 5020 NEOSSAT 1 39089U 13009D 26119.49839576 .00000180 00000+0 76867-4 0 9998 2 39089 98.4169 300.6910 0011684 36.9970 323.2020 14.35809178689754 BRITE-AUSTRIA 1 39091U 13009F 26119.45154148 .00000196 00000+0 81105-4 0 9990 2 39091 98.3984 300.0960 0010759 31.9219 328.2617 14.36521998690057 IRIS 1 39197U 13033A 26119.61029877 .00001287 00000+0 15355-3 0 9997 2 39197 97.9366 319.0346 0025736 116.5043 243.8815 14.85782725693165 HISAKI (SPRINT-A) 1 39253U 13049A 26119.37306853 .00000145 00000+0 10961-3 0 9992 2 39253 29.7191 108.1803 0136609 341.1429 18.4119 13.55538378624793 CASSIOPE 1 39265U 13055A 26119.81601845 .00024215 -45185-6 28108-3 0 9997 2 39265 80.9126 125.2959 0302782 224.6542 132.9948 15.21929586660302 STSAT-3 1 39422U 13066G 26119.89937759 .00002994 00000+0 22999-3 0 9999 2 39422 97.6181 90.6015 0009187 179.0275 181.0969 15.02471614676959 SWARM B 1 39451U 13067A 26119.81444824 .00003570 00000+0 12847-3 0 9992 2 39451 87.7479 357.0063 0002418 94.4884 265.6641 15.28264626675855 SWARM A 1 39452U 13067B 26119.87664635 .00013014 00000+0 23203-3 0 9995 2 39452 87.3313 74.1684 0003675 89.0411 271.1271 15.49942421698762 SWARM C 1 39453U 13067C 26119.87658233 .00012996 00000+0 23170-3 0 9994 2 39453 87.3314 72.7496 0003683 88.7731 271.3951 15.49943627698721 BRITE-CA1 (TORONTO) 1 40020U 14033L 26119.86425449 .00001078 00000+0 16893-3 0 9993 2 40020 97.9664 249.7054 0079990 72.0416 288.9491 14.72605658635104 OCO 2 1 40059U 14035A 26119.81145722 .00000473 00000+0 11483-3 0 9993 2 40059 98.1994 61.8506 0001584 77.9000 282.2376 14.57149216629004 BRITE-PL2 (HEWELIUSZ) 1 40119U 14049B 26119.76501663 .00001991 00000+0 19016-3 0 9995 2 40119 97.9034 231.4137 0012782 269.8851 90.0904 14.94408513634216 MMS 1 1 40482U 15011A 26119.83335647 -.00000419 00000+0 00000+0 0 9997 2 40482 71.4640 349.4687 8361885 166.4081 45.9686 0.28309052 1365 MMS 2 1 40483U 15011B 26119.83335647 -.00000419 00000+0 00000+0 0 9998 2 40483 71.4640 349.4687 8361885 166.4081 45.9686 0.28309052 1366 MMS 3 1 40484U 15011C 26119.83335647 -.00000419 00000+0 00000+0 0 9999 2 40484 71.4668 349.4732 8361114 166.4025 45.9702 0.28309003 1366 MMS 4 1 40485U 15011D 26119.83335647 -.00000419 00000+0 00000+0 0 9990 2 40485 71.4635 349.4689 8360564 166.4073 45.9664 0.28312458 1368 ASTROSAT 1 40930U 15052A 26118.24030020 .00001821 00000+0 14027-3 0 9996 2 40930 5.9957 154.8367 0007584 39.2274 320.8403 14.82417667572402 DAMPE 1 41173U 15078A 26119.85935992 .00001352 00000+0 48207-4 0 9991 2 41173 97.4570 125.0917 0010290 245.2065 114.8106 15.30661794577159 PISAT 1 41784U 16059B 26119.57624740 .00001187 00000+0 20982-3 0 9999 2 41784 97.8186 122.1210 0029128 3.9897 356.1535 14.68894249512609 HXMT (HUIYAN) 1 42758U 17034A 26119.84545859 .00004840 00000+0 24208-3 0 9992 2 42758 43.0131 92.1253 0032026 200.8669 159.0874 15.18026810490319 FLYING LAPTOP 1 42831U 17042G 26119.85337902 .00003261 00000+0 26027-3 0 9999 2 42831 97.4465 277.3213 0017910 289.7650 70.1643 15.00834655479205 ZHANGHENG 1-01 (CSES-1) 1 43194U 18015C 26119.84499170 .00007849 00000+0 35860-3 0 9999 2 43194 97.6827 284.5525 0017836 73.7550 286.5645 15.20718837457290 SALSAT 1 46495U 20068K 26119.53425572 .00008222 00000+0 29370-3 0 9993 2 46495 97.8855 119.6659 0011643 110.4415 249.8075 15.29067816307921 IXPE 1 49954U 21121A 26119.83335647 .00012377 00000+0 68719-3 0 9999 2 49954 0.2306 322.9984 0007394 68.9828 180.6457 15.09796025 5364